Flag for USA

Past Weather in Columbus Marsh Mining District, Nevada, USA — Yesterday and Last 2 Weeks

Now
91 °F

Partly sunny.


Feels Like: 87 °F
Forecast: 89 / 50 °F
Wind: 9 mph from Southwest

Location: Reno Tahoe International Airport

Current Time: Jul 17, 2019 at 3:48:33 pm

Latest Report: Jul 17, 2019 at 2:55 pm


Visibility: 10 mi

Pressure: 29.80 "Hg

Humidity: 20%

Dew Point: 44 °F

Location of Columbus Marsh Mining DistrictLocation

Past Weather in Columbus Marsh Mining District — Graph

°F

Columbus Marsh Mining District Temperature Yesterday

Maximum temperature yesterday: 89 °F (at 4:55 pm)
Minimum temperature yesterday: 61 °F (at 5:55 am)
Average temperature yesterday: 75 °F

High & Low Weather Summary for the Past Weeks

 TemperatureHumidityPressure
High98 °F (Jul 12, 3:55 pm)54% (Jul 17, 5:55 am)30.11 "Hg (Jul 17, 5:55 am)
Low54 °F (Jul 8, 5:55 am)7% (Jul 14, 1:55 pm)29.75 "Hg (Jul 16, 4:55 pm)
Average75 °F27%29.90 "Hg
* Reported Jul 2 1:55 pm — Jul 17 1:55 pm, Columbus Marsh Mining District. Weather by CustomWeather, © 2019

Note: Actual official high and low records may vary slightly from our data, if they occured in-between our weather recording intervals... More about our weather records

Advertising

Columbus Marsh Mining District Weather History for the Previous 24 Hours

Scroll right to see more
 ConditionsComfort  
Time TempWeatherWind HumidityBarometerVisibility
1:55 pm
Wed, Jul 17
89 °FPartly sunny.7 mph22%29.81 "Hg10 mi
12:55 pm86 °FScattered clouds.6 mph25%29.83 "Hg10 mi
11:55 am84 °FScattered clouds.3 mph26%29.86 "Hg10 mi
10:55 am80 °FScattered clouds.3 mph31%29.89 "Hg10 mi
9:55 am76 °FScattered clouds.No wind36%29.88 "Hg10 mi
8:55 am72 °FPassing clouds.No wind38%29.90 "Hg10 mi
7:55 am68 °FPassing clouds.No wind44%29.90 "Hg10 mi
6:55 am63 °FPassing clouds.5 mph52%29.90 "Hg10 mi
5:55 am62 °FPassing clouds.3 mph54%29.88 "Hg10 mi
4:55 am63 °FClear.8 mph52%29.85 "Hg10 mi
3:55 am63 °FClear.3 mph52%29.85 "Hg10 mi
2:55 am66 °FClear.5 mph47%29.84 "Hg10 mi
1:55 am67 °FPassing clouds.No wind47%29.85 "Hg10 mi
12:55 am71 °FPassing clouds.6 mph41%29.85 "Hg10 mi
11:55 pm
Tue, Jul 16
72 °FPassing clouds.6 mph38%29.84 "Hg10 mi
10:55 pm73 °FPassing clouds.8 mph38%29.83 "Hg10 mi
9:55 pm75 °FClear.13 mph36%29.82 "Hg10 mi
8:55 pm78 °FClear.17 mph31%29.80 "Hg10 mi
7:55 pm81 °FSunny.17 mph27%29.79 "Hg10 mi
6:55 pm83 °FPassing clouds.17 mph23%29.78 "Hg10 mi
5:55 pm86 °FPassing clouds.20 mph20%29.77 "Hg10 mi
4:55 pm89 °FPassing clouds.16 mph17%29.75 "Hg10 mi
3:55 pm86 °FPassing clouds.5 mph18%29.78 "Hg10 mi
Weather by CustomWeather, © 2019

See weather overview